H-2A R/B (43682 NORAD) Tracking and Keplerian Element Data

This shows tracking and keplerian element data for the satellite.

Feedback or suggestion? Click here.




ElementValue
Catalog43682
NameH-2A R/B
Epoch Orbit441
Epoch Day331.92014828
Epoch Year2018
RAAN86.1999
Inclination98.8593
Eccentricity0.0057319
Argument of Perigee190.0103
Mean Anonmoly169.9962
Mean Motion15.02486257
Decay Rate4.3E-06
L11 43682U 18084L 18331.92014828 .00000430 00000-0 37411-4 0 9991
L22 43682 98.8593 86.1999 0057319 190.0103 169.9962 15.02486257 4419

Live tracking and technical data element details for H-2A R/B (NORAD 43682). H-2A R/B can be tracked NOW for your location showing map with azimuth and elevation plus other details from your city location.

Track the satellite on the map from your city or location and see movement details for azimuth, elevation, latitude, longitude, range, height, and movement on the map or in text.







IsCatalogInMostPopularTable: catalog: 43682, numindb: 67
Update: records affected: 1



GetName: 43682 H-2A R/B

Hit Count: updated at: Sat, 20 Apr 2019 20:57:43 GMT